DW3656 Weather Reports


time (UTC)temp
F
wind
direction
speed
knots
gust
knots
rain 1hr
in
rain 24hr
in
rain mn
in
humidity
%
barometer
mb
20260508122105 63 333 1.7 1.7 0.00 0.00 0.00 1014.6
20260508121605 64 329 4.3 6.1 0.00 0.00 0.00 1014.6
20260508120604 63 329 2.6 7.8 0.00 0.00 0.00 1014.6
20260508120104 63 328 4.3 6.1 0.00 0.00 0.00 1014.5
20260508115605 62 327 2.6 4.3 0.00 0.00 0.00 1014.5
20260508115104 62 327 5.2 6.1 0.00 0.00 0.00 1014.5
20260508114604 62 327 2.6 4.3 0.00 0.00 0.00 1014.5
20260508113605 62 326 2.6 4.3 0.00 0.00 0.00 1014.5
20260508113104 62 325 1.7 4.3 0.00 0.00 0.00 1014.5
20260508112604 61 327 1.7 4.3 0.00 0.00 0.00 1014.5
20260508112104 61 326 2.6 4.3 0.00 0.00 0.00 1014.5
20260508111604 61 324 1.7 1.7 0.00 0.00 0.00 1014.5
20260508111104 61 326 1.7 1.7 0.00 0.00 0.00 1014.5
20260508110604 61 326 2.6 4.3 0.00 0.00 0.00 1014.5
20260508110105 61 324 1.7 4.3 0.00 0.00 0.00 1014.8
20260508105604 61 324 4.3 4.3 0.00 0.00 0.00 1014.8
20260508105103 61 325 2.6 4.3 0.00 0.00 0.00 1014.8
20260508104604 60 326 4.3 6.1 0.00 0.00 0.00 1014.8
20260508104104 60 325 0.0 6.1 0.00 0.00 0.00 1014.8
20260508103604 60 325 4.3 4.3 0.00 0.00 0.00 1014.8
20260508103104 60 323 1.7 4.3 0.00 0.00 0.00 1014.8
20260508102604 60 326 2.6 4.3 0.00 0.00 0.00 1014.8
20260508101603 60 326 1.7 4.3 0.00 0.00 0.00 1014.8
20260508101105 60 325 4.3 4.3 0.00 0.00 0.00 1014.8
20260508100605 60 324 1.7 4.3 0.00 0.00 0.00 1014.8
20260508100105 60 325 2.6 4.3 0.00 0.00 0.00 1014.4
20260508095604 59 323 4.3 4.3 0.00 0.00 0.00 1014.4
20260508095104 59 324 4.3 4.3 0.00 0.00 0.00 1014.4
20260508094604 59 324 1.7 4.3 0.00 0.00 0.00 1014.4
20260508094105 58 324 4.3 4.3 0.00 0.00 0.00 1014.4
20260508093604 58 324 1.7 4.3 0.00 0.00 0.00 1014.4
20260508093104 58 322 2.6 4.3 0.00 0.00 0.00 1014.4
20260508092604 58 324 1.7 1.7 0.00 0.00 0.00 1014.4
20260508092106 58 323 4.3 4.3 0.00 0.00 0.00 1014.4
20260508091604 58 321 2.6 4.3 0.00 0.00 0.00 1014.4
20260508090606 57 319 4.3 4.3 0.00 0.00 0.00 1014.4
20260508090104 57 317 2.6 4.3 0.00 0.00 0.00 1014.2
20260508085606 57 314 4.3 4.3 0.00 0.00 0.00 1014.2
20260508085104 57 313 0.9 1.7 0.00 0.00 0.00 1014.2
20260508070604 53 298 0.0 1.7 0.00 0.00 0.00 1013.9
20260508070104 52 297 0.0 0.0 0.00 0.00 0.00 1013.3
20260508065604 52 296 0.0 0.0 0.00 0.00 0.00 1013.3
20260508065105 52 296 0.0 0.0 0.00 0.00 0.00 1013.3
20260508064603 52 295 0.0 0.0 0.00 0.00 0.00 1013.3
20260508064104 51 294 0.0 0.0 0.00 0.00 0.00 1013.3
20260508063604 51 294 0.0 0.0 0.00 0.00 0.00 1013.3
20260508063104 51 292 0.0 0.0 0.00 0.00 0.00 1013.3
20260508062604 50 292 0.0 0.0 0.00 0.00 0.00 1013.3
20260508062105 50 291 0.0 0.0 0.00 0.00 0.00 1013.3
20260508061604 50 291 0.0 0.0 0.00 0.00 0.00 1013.3
20260508061105 50 291 0.0 0.0 0.00 0.00 0.00 1013.3
20260508060603 50 290 1.7 1.7 0.00 0.00 0.00 1013.3
20260508060103 49 290 0.0 1.7 0.00 0.00 0.00 1012.8
20260508055604 49 289 0.0 0.0 0.00 0.00 0.00 1012.8
20260508055104 49 290 0.9 1.7 0.00 0.00 0.00 1012.8
20260508054604 49 289 1.7 4.3 0.00 0.00 0.00 1012.8
20260508053604 49 288 0.0 1.7 0.00 0.00 0.00 1012.8
20260508053104 49 288 0.9 4.3 0.00 0.00 0.00 1012.8
20260508052604 49 288 2.6 4.3 0.00 0.00 0.00 1012.8
20260508052104 48 288 0.9 4.3 0.00 0.00 0.00 1012.8
20260508051104 48 287 1.7 4.3 0.00 0.00 0.00 1012.8
20260508050603 48 288 4.3 4.3 0.00 0.00 0.00 1012.8
20260508050104 48 287 1.7 1.7 0.00 0.00 0.00 1012.6
20260508045604 48 288 1.7 1.7 0.00 0.00 0.00 1012.6
20260508044605 48 288 2.6 4.3 0.00 0.00 0.00 1012.6
20260508044105 48 288 2.6 4.3 0.00 0.00 0.00 1012.6
20260508043604 48 289 1.7 1.7 0.00 0.00 0.00 1012.6
20260508043105 48 289 0.9 1.7 0.00 0.00 0.00 1012.6
20260508042604 49 289 1.7 1.7 0.00 0.00 0.00 1012.6
20260508042103 49 290 1.7 1.7 0.00 0.00 0.00 1012.6
20260508041606 49 289 1.7 4.3 0.00 0.00 0.00 1012.6
20260508040604 49 289 4.3 4.3 0.00 0.00 0.00 1012.6
20260508040104 49 289 1.7 1.7 0.00 0.00 0.00 1012.6
20260508035104 49 290 1.7 6.1 0.00 0.00 0.00 1012.6
20260508034606 49 290 4.3 6.1 0.00 0.00 0.00 1012.6
20260508034104 49 290 2.6 4.3 0.00 0.00 0.00 1012.6
20260508033603 49 290 1.7 1.7 0.00 0.00 0.00 1012.6
20260508033104 49 290 1.7 4.3 0.00 0.00 0.00 1012.6
20260508032604 49 290 1.7 4.3 0.00 0.00 0.00 1012.6
20260508031604 50 290 0.9 1.7 0.00 0.00 0.00 1012.6
20260508030605 50 290 0.9 1.7 0.00 0.00 0.00 1012.6
20260508030105 50 290 1.7 4.3 0.00 0.00 0.00 1012.5
20260508025604 50 290 2.6 4.3 0.00 0.00 0.00 1012.5
20260508025104 50 290 1.7 1.7 0.00 0.00 0.00 1012.5
20260508024604 50 290 0.9 4.3 0.00 0.00 0.00 1012.5
20260508022604 50 290 0.0 0.0 0.00 0.00 0.00 1012.5
20260508022104 50 291 4.3 4.3 0.00 0.00 0.00 1012.5
20260508021603 50 290 0.0 1.7 0.00 0.00 0.00 1012.5
20260508020605 50 290 0.0 0.0 0.00 0.00 0.00 1012.5
20260508020104 50 291 0.9 1.7 0.00 0.00 0.00 1012.5
20260508015603 50 290 1.7 1.7 0.00 0.00 0.00 1012.5
20260508015104 50 290 0.0 1.7 0.00 0.00 0.00 1012.5
20260508014603 50 290 1.7 1.7 0.00 0.00 0.00 1012.5
20260508013604 50 290 0.9 1.7 0.00 0.00 0.00 1012.5
20260508013104 50 290 1.7 1.7 0.00 0.00 0.00 1012.5
20260508012103 50 290 1.7 1.7 0.00 0.00 0.00 1012.5
20260508011604 50 290 0.9 1.7 0.00 0.00 0.00 1012.5
20260508011104 50 290 0.0 1.7 0.00 0.00 0.00 1012.5
20260508010604 50 290 0.0 0.0 0.00 0.00 0.00 1012.5
20260508005604 50 290 0.0 1.7 0.00 0.00 0.00 1012.5
20260508005103 50 290 4.3 4.3 0.00 0.00 0.00 1012.5
20260508004604 50 289 0.9 1.7 0.00 0.00 0.00 1012.5
20260508003604 50 289 0.9 1.7 0.00 0.00 0.00 1012.5
20260508002603 50 290 1.7 4.3 0.00 0.00 0.00 1012.5
20260508002105 50 289 4.3 4.3 0.00 0.00 0.00 1012.5
20260508001604 50 290 4.3 4.3 0.00 0.00 0.00 1012.5
20260508000604 50 289 4.3 4.3 0.00 0.00 0.00 1012.5
20260508000104 49 289 1.7 4.3 0.00 0.00 0.00 1012.2
20260507235603 49 288 2.6 4.3 0.00 0.00 0.00 1012.2
20260507235104 49 288 2.6 4.3 0.00 0.00 0.00 1012.2
20260507234604 49 289 4.3 4.3 0.00 0.00 0.00 1012.2
20260507234104 49 288 4.3 4.3 0.00 0.00 0.00 1012.2
20260507233104 49 288 2.6 4.3 0.00 0.00 0.00 1012.2
20260507232604 49 288 5.2 6.1 0.00 0.00 0.00 1012.2
20260507232105 49 288 4.3 4.3 0.00 0.00 0.00 1012.2
20260507231604 48 288 1.7 4.3 0.00 0.00 0.00 1012.2
20260507231103 49 289 2.6 4.3 0.00 0.00 0.00 1012.2
20260507230604 49 288 1.7 4.3 0.00 0.00 0.00 1012.2
20260507230104 49 289 2.6 4.3 0.00 0.00 0.00 1012.2
20260507225605 49 289 2.6 4.3 0.00 0.00 0.00 1012.2
20260507225104 49 289 1.7 4.3 0.00 0.00 0.00 1012.2
20260507224604 49 290 2.6 4.3 0.00 0.00 0.00 1012.2
20260507224104 49 290 1.7 4.3 0.00 0.00 0.00 1012.2
20260507223605 49 290 2.6 4.3 0.00 0.00 0.00 1012.2
20260507223106 49 290 1.7 4.3 0.00 0.00 0.00 1012.2
20260507222104 50 290 4.3 4.3 0.00 0.00 0.00 1012.2
20260507220605 50 292 1.7 4.3 0.00 0.00 0.00 1012.2
20260507215605 51 292 1.7 1.7 0.00 0.00 0.00 1012.2
20260507215104 51 293 2.6 4.3 0.00 0.00 0.00 1012.2
20260507214605 51 293 2.6 4.3 0.00 0.00 0.00 1012.2
20260507214104 51 292 2.6 4.3 0.00 0.00 0.00 1012.2
20260507213604 51 293 1.7 4.3 0.00 0.00 0.00 1012.2
20260507213105 51 293 0.9 4.3 0.00 0.00 0.00 1012.2
20260507212604 51 293 1.7 1.7 0.00 0.00 0.00 1012.2
20260507211604 51 294 0.9 1.7 0.00 0.00 0.00 1012.2
20260507211104 51 293 1.7 1.7 0.00 0.00 0.00 1012.2
20260507210604 51 293 0.9 1.7 0.00 0.00 0.00 1012.2
20260507210105 51 294 2.6 4.3 0.00 0.00 0.00 1011.5
20260507205604 51 293 2.6 4.3 0.00 0.00 0.00 1011.5
20260507205105 51 294 2.6 4.3 0.00 0.00 0.00 1011.5
20260507204604 51 294 1.7 1.7 0.00 0.00 0.00 1011.5
20260507204104 52 294 1.7 1.7 0.00 0.00 0.00 1011.5
20260507203605 51 294 1.7 1.7 0.00 0.00 0.00 1011.5
20260507203104 52 294 2.6 4.3 0.00 0.00 0.00 1011.5
20260507202604 52 295 1.7 1.7 0.00 0.00 0.00 1011.5
20260507202105 52 294 2.6 4.3 0.00 0.00 0.00 1011.5
20260507201104 52 294 2.6 4.3 0.00 0.00 0.00 1011.5
20260507200604 52 295 0.9 4.3 0.00 0.00 0.00 1011.5
20260507195605 52 296 0.9 1.7 0.00 0.00 0.00 1011.3
20260507195104 52 295 1.7 1.7 0.00 0.00 0.00 1011.3
20260507194604 52 296 1.7 1.7 0.00 0.00 0.00 1011.3
20260507194104 52 296 2.6 4.3 0.00 0.00 0.00 1011.3
20260507193603 52 296 1.7 1.7 0.00 0.00 0.00 1011.3
20260507192104 53 298 0.9 1.7 0.00 0.00 0.00 1011.3
20260507191604 53 298 0.0 1.7 0.00 0.00 0.00 1011.3
20260507191103 53 297 0.9 1.7 0.00 0.00 0.00 1011.3
20260507190604 54 299 0.0 0.0 0.00 0.00 0.00 1011.3
20260507190105 54 299 0.0 0.0 0.00 0.00 0.00 1011.2
20260507185603 54 300 0.0 0.0 0.00 0.00 0.00 1011.2
20260507185104 54 300 0.0 0.0 0.00 0.00 0.00 1011.2
20260507184604 54 301 0.0 0.0 0.00 0.00 0.00 1011.2
20260507184104 54 301 0.0 0.0 0.00 0.00 0.00 1011.2
20260507183604 55 302 0.0 1.7 0.00 0.00 0.00 1011.2
20260507183104 55 302 0.9 4.3 0.00 0.00 0.00 1011.2
20260507182604 55 303 2.6 4.3 0.00 0.00 0.00 1011.2
20260507182104 55 303 1.7 4.3 0.00 0.00 0.00 1011.2
20260507181105 55 304 1.7 1.7 0.00 0.00 0.00 1011.2
20260507180604 56 303 0.0 4.3 0.00 0.00 0.00 1011.2
20260507175603 56 306 1.7 1.7 0.00 0.00 0.00 1011.2
20260507175104 56 306 4.3 4.3 0.00 0.00 0.00 1011.2
20260507174603 56 305 0.0 4.3 0.00 0.00 0.00 1011.2
20260507174105 57 307 2.6 4.3 0.00 0.00 0.00 1011.2
20260507173604 57 308 2.6 4.3 0.00 0.00 0.00 1011.2
20260507173104 57 306 0.9 1.7 0.00 0.00 0.00 1011.2
20260507172104 57 309 0.0 0.0 0.00 0.00 0.00 1011.2
20260507171604 57 310 0.0 0.0 0.00 0.00 0.00 1011.2
20260507171104 57 310 0.0 0.0 0.00 0.00 0.00 1011.2
20260507170603 57 311 0.0 0.0 0.00 0.00 0.00 1011.2
20260507170104 58 311 0.0 0.0 0.00 0.00 0.00 1011.6
20260507165604 58 310 0.0 0.0 0.00 0.00 0.00 1011.6
20260507165104 58 313 0.0 1.7 0.00 0.00 0.00 1011.6
20260507164604 58 313 1.7 1.7 0.00 0.00 0.00 1011.6
20260507164104 58 313 0.0 1.7 0.00 0.00 0.00 1011.6
20260507163603 58 315 0.9 1.7 0.00 0.00 0.00 1011.6
20260507163104 58 316 0.0 0.0 0.00 0.00 0.00 1011.6
20260507162604 58 317 0.9 1.7 0.00 0.00 0.00 1011.6
20260507162104 59 318 0.9 1.7 0.00 0.00 0.00 1011.6
20260507161104 59 316 0.0 1.7 0.00 0.00 0.00 1011.6
20260507160604 59 317 0.9 4.3 0.00 0.00 0.00 1011.6
20260507160105 59 320 5.2 6.1 0.00 0.00 0.00 1011.8
20260507155606 59 320 2.6 4.3 0.00 0.00 0.00 1011.8
20260507155104 59 322 4.3 4.3 0.00 0.00 0.00 1011.8
20260507154604 59 322 2.6 4.3 0.00 0.00 0.00 1011.8
20260507153604 59 322 4.3 4.3 0.00 0.00 0.00 1011.8
20260507153106 59 322 1.7 4.3 0.00 0.00 0.00 1011.8
20260507152604 59 319 2.6 4.3 0.00 0.00 0.00 1011.8
20260507152104 59 318 0.9 1.7 0.00 0.00 0.00 1011.8
20260507151604 59 319 2.6 6.1 0.00 0.00 0.00 1011.8
20260507151104 59 319 5.2 6.1 0.00 0.00 0.00 1011.8
20260507150104 59 320 0.9 4.3 0.00 0.00 0.00 1012.3
20260507145604 59 317 6.1 6.1 0.00 0.00 0.00 1012.3
20260507144604 58 316 4.3 4.3 0.00 0.00 0.00 1012.3
20260507144104 58 318 1.7 6.1 0.00 0.00 0.00 1012.3
20260507143103 58 316 2.6 4.3 0.00 0.00 0.00 1012.3
20260507142604 58 315 4.3 4.3 0.00 0.00 0.00 1012.3
20260507142104 58 315 5.2 6.1 0.00 0.00 0.00 1012.3
20260507141604 58 314 4.3 6.1 0.00 0.00 0.00 1012.3
20260507141104 58 313 0.0 4.3 0.00 0.00 0.00 1012.3
20260507140104 57 310 4.3 6.1 0.00 0.00 0.00 1012.6
20260507135604 57 310 2.6 4.3 0.00 0.00 0.00 1012.6
20260507135104 57 308 4.3 6.1 0.00 0.00 0.00 1012.6
20260507134605 56 308 5.2 6.1 0.00 0.00 0.00 1012.6
20260507134104 56 307 6.1 6.1 0.00 0.00 0.00 1012.6
20260507133604 56 306 1.7 1.7 0.00 0.00 0.00 1012.6
20260507133105 55 306 1.7 4.3 0.00 0.00 0.00 1012.6
20260507132604 55 304 2.6 4.3 0.00 0.00 0.00 1012.6
20260507132105 54 303 4.3 6.1 0.00 0.00 0.00 1012.6
20260507131604 54 303 4.3 4.3 0.00 0.00 0.00 1012.6
20260507131104 54 303 4.3 6.1 0.00 0.00 0.00 1012.6
20260507130604 54 303 4.3 6.1 0.00 0.00 0.00 1012.6
20260507124605 54 304 1.7 6.1 0.00 0.00 0.00 1012.5
20260507124104 54 304 2.6 6.1 0.00 0.00 0.00 1012.5
20260507123104 54 304 4.3 7.8 0.00 0.00 0.00 1012.5
20260507122604 54 305 6.1 7.8 0.00 0.00 0.00 1012.5